This is the latest recevied weather packets stored in our database for station/object E22ZMG-2. If no packets are shown the sender has not sent any weather packets the latest 10 day(s).
| Time | Temp. | Humidity | Pressure | Rain* | Wind** | Luminosity | Snow |
|---|---|---|---|---|---|---|---|
| 1777781365 | 31.67° C | 42% | 927 hPa | - | - | 0 W/m² | - |
| 1777780741 | 31.67° C | 42% | 927 hPa | - | - | 0 W/m² | - |
| 1777780116 | 31.11° C | 43% | 927 hPa | - | - | 0 W/m² | - |
| 1777779492 | 31.11° C | 44% | 928 hPa | - | - | 0 W/m² | - |
| 1777778868 | 31.11° C | 45% | 928 hPa | - | - | 0 W/m² | - |
| 1777778244 | 31.11° C | 45% | 928 hPa | - | - | 0 W/m² | - |
| 1777777620 | 30.56° C | 45% | 928 hPa | - | - | 0 W/m² | - |
| 1777776996 | 30.56° C | 47% | 928 hPa | - | - | 0 W/m² | - |
| 1777776371 | 30° C | 49% | 928 hPa | - | - | 0 W/m² | - |
| 1777775746 | 29.44° C | 52% | 928 hPa | - | - | 0 W/m² | - |
| 1777775122 | 29.44° C | 53% | 928 hPa | - | - | 0 W/m² | - |
| 1777774498 | 28.89° C | 53% | 928 hPa | - | - | 0 W/m² | - |
| 1777773874 | 28.89° C | 54% | 928 hPa | - | - | 0 W/m² | - |
| 1777773250 | 28.33° C | 55% | 928 hPa | - | - | 0 W/m² | - |
| 1777772625 | 28.89° C | 57% | 928 hPa | - | - | 0 W/m² | - |
| 1777772001 | 28.33° C | 57% | 928 hPa | - | - | 0 W/m² | - |
| 1777771377 | 28.33° C | 57% | 927 hPa | - | - | 0 W/m² | - |
| 1777770753 | 27.78° C | 60% | 927 hPa | - | - | 0 W/m² | - |
| 1777770129 | 27.78° C | 59% | 927 hPa | - | - | 0 W/m² | - |
| 1777769505 | 27.78° C | 60% | 927 hPa | - | - | 0 W/m² | - |
| 1777768880 | 27.22° C | 61% | 927 hPa | - | - | 0 W/m² | - |
| 1777768256 | 27.22° C | 62% | 927 hPa | - | - | 0 W/m² | - |
| 1777767632 | 27.22° C | 63% | 927 hPa | - | - | 0 W/m² | - |
| 1777767006 | 27.78° C | 61% | 927 hPa | - | - | 0 W/m² | - |
| 1777766382 | 27.22° C | 61% | 927 hPa | - | - | 0 W/m² | - |
* Rain since midnight (hover to see other rain measurements)
** Current wind speed in m/s (hover to see current wind gust speed)